TimeCST,TemperatureF,Dew PointF,Humidity,Sea Level PressureIn,VisibilityMPH,Wind Direction,Wind SpeedMPH,Gust SpeedMPH,PrecipitationIn,Events,Conditions,WindDirDegrees,DateUTC
12:08 AM,33.1,18.1,54,-9999,-9999.0,WSW,2.3,-,N/A,,Unknown,250,2013-03-01 06:08:00
12:28 AM,34.0,18.1,52,-9999,-9999.0,West,5.8,-,N/A,,Unknown,260,2013-03-01 06:28:00
12:48 AM,34.0,18.1,52,-9999,-9999.0,West,4.6,-,N/A,,Unknown,260,2013-03-01 06:48:00
1:08 AM,34.0,18.1,52,-9999,-9999.0,West,6.9,-,N/A,,Unknown,260,2013-03-01 07:08:00
1:28 AM,32.0,18.1,57,-9999,-9999.0,West,5.8,-,N/A,,Unknown,260,2013-03-01 07:28:00
1:48 AM,33.1,18.1,54,-9999,-9999.0,West,5.8,-,N/A,,Unknown,280,2013-03-01 07:48:00
2:08 AM,32.0,18.1,57,-9999,-9999.0,WNW,5.8,-,N/A,,Unknown,290,2013-03-01 08:08:00
2:28 AM,30.9,17.1,57,-9999,-9999.0,West,6.9,-,N/A,,Unknown,280,2013-03-01 08:28:00
2:48 AM,32.0,17.1,54,-9999,-9999.0,West,4.6,-,N/A,,Unknown,270,2013-03-01 08:48:00
3:08 AM,32.0,15.1,50,-9999,-9999.0,West,12.7,-,N/A,,Unknown,280,2013-03-01 09:08:00
3:28 AM,30.9,15.1,52,-9999,-9999.0,West,10.4,-,N/A,,Unknown,270,2013-03-01 09:28:00
3:48 AM,33.1,15.1,48,-9999,-9999.0,WNW,10.4,-,N/A,,Unknown,290,2013-03-01 09:48:00
4:08 AM,34.0,12.0,40,-9999,-9999.0,NNW,17.3,-,N/A,,Unknown,340,2013-03-01 10:08:00
4:28 AM,33.1,17.1,52,-9999,-9999.0,North,8.1,-,N/A,,Unknown,350,2013-03-01 10:28:00
4:48 AM,33.1,22.1,64,-9999,-9999.0,North,10.4,-,N/A,,Unknown,350,2013-03-01 10:48:00
5:08 AM,33.1,23.0,66,-9999,-9999.0,NW,8.1,-,N/A,,Unknown,320,2013-03-01 11:08:00
5:28 AM,34.0,22.1,62,-9999,-9999.0,NW,9.2,-,N/A,,Unknown,320,2013-03-01 11:28:00
5:48 AM,34.0,20.1,57,-9999,-9999.0,NNW,10.4,-,N/A,,Unknown,330,2013-03-01 11:48:00
6:08 AM,33.1,20.1,59,-9999,-9999.0,NW,9.2,-,N/A,,Unknown,320,2013-03-01 12:08:00
6:28 AM,34.0,19.0,54,-9999,-9999.0,NW,13.8,-,N/A,,Unknown,310,2013-03-01 12:28:00
6:48 AM,34.0,18.1,52,-9999,-9999.0,NW,16.1,-,N/A,,Unknown,310,2013-03-01 12:48:00
7:08 AM,34.0,19.0,54,-9999,-9999.0,NW,11.5,-,N/A,,Unknown,310,2013-03-01 13:08:00
7:28 AM,34.0,18.1,52,-9999,-9999.0,NW,13.8,-,N/A,,Unknown,310,2013-03-01 13:28:00
7:48 AM,34.0,17.1,50,-9999,-9999.0,NW,12.7,-,N/A,,Unknown,310,2013-03-01 13:48:00
8:08 AM,35.1,19.0,52,-9999,-9999.0,NW,12.7,-,N/A,,Unknown,320,2013-03-01 14:08:00
8:28 AM,36.0,17.1,46,-9999,-9999.0,NW,16.1,-,N/A,,Unknown,310,2013-03-01 14:28:00
8:48 AM,36.0,17.1,46,-9999,-9999.0,NW,13.8,-,N/A,,Unknown,320,2013-03-01 14:48:00
9:08 AM,37.0,16.2,43,-9999,-9999.0,NW,15.0,-,N/A,,Unknown,320,2013-03-01 15:08:00
9:28 AM,37.9,17.1,43,-9999,-9999.0,NNW,17.3,-,N/A,,Unknown,330,2013-03-01 15:28:00
9:48 AM,39.0,17.1,41,-9999,-9999.0,NNW,17.3,-,N/A,,Unknown,340,2013-03-01 15:48:00
10:08 AM,39.0,18.1,43,-9999,-9999.0,NW,16.1,-,N/A,,Unknown,320,2013-03-01 16:08:00
10:28 AM,39.9,18.1,42,-9999,-9999.0,NNW,11.5,-,N/A,,Unknown,330,2013-03-01 16:28:00
10:48 AM,41.0,18.1,40,-9999,-9999.0,NNW,13.8,-,N/A,,Unknown,340,2013-03-01 16:48:00
11:08 AM,42.1,19.0,40,-9999,-9999.0,NNW,11.5,-,N/A,,Unknown,330,2013-03-01 17:08:00
11:28 AM,43.0,17.1,35,-9999,-9999.0,NW,15.0,-,N/A,,Unknown,320,2013-03-01 17:28:00
11:48 AM,44.1,18.1,35,-9999,-9999.0,NW,17.3,-,N/A,,Unknown,310,2013-03-01 17:48:00
12:08 PM,45.0,19.0,36,-9999,-9999.0,NNW,13.8,-,N/A,,Unknown,330,2013-03-01 18:08:00
12:28 PM,-9999,-9999,N/A,33.21,-9999.0,North,1.2,-,N/A,,Unknown,0,2013-03-01 18:28:00
12:48 PM,45.0,19.0,36,-9999,-9999.0,North,20.7,-,N/A,,Unknown,350,2013-03-01 18:48:00
1:08 PM,46.9,20.1,35,-9999,-9999.0,NNW,15.0,-,N/A,,Unknown,330,2013-03-01 19:08:00
1:28 PM,46.9,16.2,29,-9999,-9999.0,NNW,23.0,-,N/A,,Unknown,330,2013-03-01 19:28:00
1:48 PM,48.0,16.2,28,-9999,-9999.0,NNW,27.6,-,N/A,,Unknown,330,2013-03-01 19:48:00
2:08 PM,48.0,16.2,28,-9999,-9999.0,NNW,21.9,-,N/A,,Unknown,330,2013-03-01 20:08:00
2:28 PM,48.9,17.1,28,-9999,-9999.0,NNW,19.6,-,N/A,,Unknown,340,2013-03-01 20:28:00
2:48 PM,48.9,16.2,27,-9999,-9999.0,NNW,20.7,-,N/A,,Unknown,340,2013-03-01 20:48:00
3:08 PM,48.9,18.1,30,-9999,-9999.0,NNW,21.9,-,N/A,,Unknown,340,2013-03-01 21:08:00
3:28 PM,50.0,17.1,27,-9999,-9999.0,NW,17.3,-,N/A,,Unknown,320,2013-03-01 21:28:00
3:48 PM,50.0,18.1,28,-9999,-9999.0,NNW,18.4,-,N/A,,Unknown,340,2013-03-01 21:48:00
4:08 PM,50.0,18.1,28,-9999,-9999.0,NNW,15.0,-,N/A,,Unknown,340,2013-03-01 22:08:00
4:28 PM,48.9,17.1,28,-9999,-9999.0,NNW,17.3,-,N/A,,Unknown,340,2013-03-01 22:28:00
4:48 PM,48.9,18.1,30,-9999,-9999.0,North,13.8,-,N/A,,Unknown,350,2013-03-01 22:48:00
5:08 PM,48.0,18.1,31,-9999,-9999.0,North,15.0,-,N/A,,Unknown,350,2013-03-01 23:08:00
5:28 PM,46.4,17.6,32,-9999,-9999.0,North,12.7,-,N/A,,Unknown,350,2013-03-01 23:28:00
5:48 PM,46.9,18.1,32,-9999,-9999.0,North,10.4,-,N/A,,Unknown,360,2013-03-01 23:48:00
6:08 PM,46.0,17.1,31,-9999,-9999.0,North,13.8,-,N/A,,Unknown,360,2013-03-02 00:08:00
6:28 PM,45.0,18.1,34,-9999,-9999.0,North,12.7,-,N/A,,Unknown,360,2013-03-02 00:28:00
6:48 PM,43.0,21.0,42,-9999,-9999.0,ENE,11.5,-,N/A,,Unknown,60,2013-03-02 00:48:00
7:08 PM,41.0,22.1,47,-9999,-9999.0,NE,8.1,-,N/A,,Unknown,50,2013-03-02 01:08:00
7:28 PM,41.0,22.1,47,-9999,-9999.0,NE,5.8,-,N/A,,Unknown,40,2013-03-02 01:28:00
7:48 PM,39.9,22.1,49,-9999,-9999.0,NE,5.8,-,N/A,,Unknown,40,2013-03-02 01:48:00
8:08 PM,39.0,22.1,51,-9999,-9999.0,NE,5.8,-,N/A,,Unknown,40,2013-03-02 02:08:00
8:28 PM,39.0,22.1,51,-9999,-9999.0,NNE,4.6,-,N/A,,Unknown,30,2013-03-02 02:28:00
8:48 PM,39.0,21.0,49,-9999,-9999.0,ENE,5.8,-,N/A,,Unknown,60,2013-03-02 02:48:00
9:08 PM,36.0,21.0,55,-9999,-9999.0,East,5.8,-,N/A,,Unknown,80,2013-03-02 03:08:00
9:28 PM,35.1,21.0,57,-9999,-9999.0,East,4.6,-,N/A,,Unknown,80,2013-03-02 03:28:00
9:48 PM,32.0,20.1,62,-9999,-9999.0,ESE,5.8,-,N/A,,Unknown,110,2013-03-02 03:48:00
10:08 PM,32.0,21.0,64,-9999,-9999.0,East,5.8,-,N/A,,Unknown,90,2013-03-02 04:08:00
10:28 PM,30.9,20.1,64,-9999,-9999.0,ESE,4.6,-,N/A,,Unknown,110,2013-03-02 04:28:00
10:48 PM,30.9,21.0,67,-9999,-9999.0,SSE,3.5,-,N/A,,Unknown,150,2013-03-02 04:48:00
11:08 PM,32.0,21.0,64,-9999,-9999.0,South,4.6,-,N/A,,Unknown,170,2013-03-02 05:08:00
11:28 PM,32.0,22.1,67,-9999,-9999.0,South,5.8,-,N/A,,Unknown,180,2013-03-02 05:28:00
11:48 PM,32.0,22.1,67,-9999,-9999.0,South,6.9,-,N/A,,Unknown,180,2013-03-02 05:48:00